Wind_Speed
24 23 21 20 19 19 17 17 17 18 18 18 17 17 17 17 15 15 16 16 16 18 19 21 22 23 25 28 29 27 26 28 28 28 28 27 27 26 21 16 15 14 13 12 11 10 9 8 8 8 9 9 10 10 9 8 8 9 9 9 10 9 9 9 8 9 11 12 13 13 14 15 14 14 16 15 14 14 14 14 14 14 15 15 15
24 23 22 21 21 20 19 18 19 19 19 19 17 17 17 16 14 14 16 16 16 18 20 24 26 27 29 30 28 28 28 29 30 29 29 27 26 25 20 15 14 13 13 13 12 10 10 9 8 8 8 9 10 10 9 8 8 8 9 9 9 9 9 9 8 9 11 13 13 13 13 14 14 13 15 15 15 15 15 15 15 15 16 16 16
23 23 23 22 22 21 20 20 20 20 20 18 16 16 17 16 15 14 15 17 17 18 22 27 28 27 29 27 24 25 28 30 29 28 27 26 25 24 21 18 18 16 14 14 13 11 10 9 8 8 8 10 10 10 9 8 7 8 9 9 9 9 9 9 9 10 11 13 13 13 12 14 13 13 14 14 15 15 15 16 16 16 17 18 18
24 24 24 24 23 22 21 21 21 20 19 17 15 16 16 16 15 15 16 17 17 19 25 30 29 24 24 25 23 23 26 25 23 23 23 24 23 23 22 21 20 17 15 14 13 11 10 9 9 8 9 9 9 9 8 8 8 8 9 9 9 9 9 9 9 10 11 12 13 12 12 13 13 13 13 14 15 15 16 18 18 18 19 19 19
26 26 25 24 24 23 22 21 21 19 18 15 15 16 16 16 16 16 16 17 18 20 24 28 25 20 21 22 22 22 23 22 21 20 22 24 23 21 22 21 17 15 14 14 13 11 10 10 9 8 8 9 9 8 8 8 8 9 9 9 9 9 10 10 10 10 11 12 12 12 12 13 13 13 13 14 15 16 17 18 19 19 19 20 20
27 26 25 25 24 23 22 21 20 18 16 14 15 15 16 16 16 17 17 17 19 21 22 23 21 19 20 19 20 22 22 22 21 21 23 25 23 21 21 18 15 14 13 13 12 11 12 11 9 8 8 9 9 9 9 9 9 9 10 10 10 10 10 10 10 10 11 12 12 13 13 13 13 13 14 14 15 16 17 17 18 19 19 19 20
27 27 25 25 24 23 22 21 19 17 15 14 15 16 16 16 17 17 17 17 18 20 21 21 19 18 19 18 19 21 23 22 22 23 27 27 25 22 18 15 14 14 13 13 13 13 13 11 8 7 8 9 9 10 10 10 10 10 10 10 10 10 10 10 10 11 11 12 12 13 14 13 13 13 14 14 15 15 16 17 17 17 18 19 19
27 27 26 25 24 23 21 20 18 16 15 14 15 15 16 16 17 17 17 18 18 18 19 18 16 15 16 18 19 21 25 26 25 26 28 28 27 22 15 13 14 15 14 13 13 14 13 10 7 7 8 10 10 10 11 11 11 11 11 11 11 11 11 11 11 11 12 12 13 14 14 14 14 13 14 14 15 15 16 17 16 17 17 18 18
28 27 26 26 24 22 21 20 18 15 14 14 14 14 15 16 16 16 16 16 16 15 14 14 13 13 14 16 18 20 24 26 27 27 27 28 28 21 14 13 16 16 15 13 14 14 13 9 7 8 9 10 11 11 12 12 12 12 12 11 11 11 11 11 11 12 12 12 13 14 15 14 14 14 14 15 15 16 16 16 16 17 17 18 18
28 27 27 26 24 22 21 19 16 14 13 13 12 14 15 16 15 14 14 13 13 12 12 12 12 11 12 13 17 20 21 21 23 25 25 26 26 21 14 14 16 17 15 13 14 14 11 8 8 9 10 11 12 12 13 13 13 13 13 12 12 12 12 12 12 12 12 12 13 14 15 14 14 14 15 15 16 16 17 17 16 17 18 18 18
27 27 27 26 24 22 21 18 15 13 13 12 12 13 14 15 13 12 11 10 11 10 11 12 10 9 11 12 16 19 20 21 22 22 22 23 25 22 16 15 16 16 14 14 14 14 11 9 10 10 11 12 13 13 13 14 14 14 14 13 13 12 12 12 13 13 13 13 14 15 15 15 14 14 15 15 16 17 17 17 16 17 17 18 18
28 27 28 26 23 21 20 17 14 13 12 11 11 12 13 12 11 9 8 8 8 8 10 11 8 7 9 10 12 13 14 18 20 19 19 21 24 23 17 15 16 15 14 14 14 13 11 10 11 12 13 13 13 14 15 15 15 15 14 14 13 13 13 13 13 14 13 13 14 15 15 15 15 15 15 16 17 17 17 17 17 17 17 18 18
29 28 28 26 23 21 19 15 13 13 11 10 10 11 11 10 8 6 6 6 6 6 8 8 6 7 7 6 9 12 13 16 18 17 18 22 26 24 18 15 15 15 15 14 13 13 12 11 12 13 14 14 14 15 16 17 17 16 15 15 14 13 13 13 14 14 14 14 15 15 15 15 15 15 16 16 17 18 18 18 18 17 17 18 19
30 29 29 26 23 21 18 15 14 12 10 10 10 9 8 7 6 5 6 6 5 5 6 5 4 7 7 7 10 13 15 17 17 16 19 23 28 25 18 15 15 16 15 14 13 13 13 13 13 14 15 15 16 17 18 18 17 16 16 15 15 14 14 14 14 15 15 15 16 16 15 15 16 16 16 17 17 18 19 19 19 18 18 19 19
30 30 29 26 24 20 17 15 13 12 10 9 8 7 7 7 6 5 6 7 6 6 6 5 4 6 9 10 11 12 13 15 16 18 20 25 29 25 18 15 15 16 15 13 13 13 14 14 15 16 16 16 17 18 18 18 18 17 17 16 15 15 15 15 15 15 15 16 16 16 16 15 16 16 17 17 17 18 19 19 19 18 18 19 20
31 30 28 26 23 19 16 15 13 11 9 8 6 6 7 7 6 6 7 8 7 6 6 5 5 6 8 10 11 13 14 16 17 18 21 26 29 25 20 17 17 16 15 14 13 14 15 16 17 17 17 18 19 19 19 19 19 18 17 16 16 15 15 16 15 15 16 16 17 17 16 16 16 17 17 17 18 18 18 19 20 19 20 20 20
31 30 27 25 22 18 16 15 13 11 9 7 6 7 7 7 7 7 7 7 6 6 5 5 5 6 8 10 11 13 15 17 18 19 22 27 28 26 22 20 18 17 16 15 14 15 16 18 18 18 19 19 19 19 19 19 19 19 18 17 17 16 16 16 16 16 16 16 17 17 17 17 17 17 17 18 18 19 19 20 20 20 20 20 20
30 28 26 24 21 19 17 16 13 11 9 7 7 8 8 8 8 7 7 7 7 7 7 6 5 6 7 9 11 13 16 18 20 21 23 26 28 27 24 22 20 19 18 17 16 16 17 19 19 20 20 20 20 19 19 19 19 20 19 18 18 17 17 16 16 16 16 16 17 17 17 17 17 17 17 17 18 19 19 19 19 18 19 19 19
29 27 25 23 21 20 18 16 14 12 10 9 8 8 8 8 8 8 8 8 8 8 8 7 6 7 7 9 11 14 16 19 21 22 24 26 28 27 25 24 22 22 20 18 17 18 18 19 20 21 21 21 20 20 19 19 20 20 20 19 18 18 17 17 16 16 16 16 16 17 17 18 18 18 18 18 18 18 18 19 19 19 19 19 19
26 25 24 22 21 21 19 16 15 13 12 10 9 8 8 8 9 9 9 8 9 9 9 8 8 8 9 11 13 15 17 19 21 23 24 25 26 27 27 26 24 24 22 19 19 20 20 20 21 22 22 22 21 20 19 20 20 20 20 20 19 18 18 17 17 16 16 16 16 17 17 17 17 17 18 18 18 18 19 19 19 19 20 19 19
26 25 23 22 21 21 18 17 16 15 13 12 10 9 9 9 10 10 10 10 10 10 10 10 11 11 13 14 15 17 19 21 22 22 23 24 26 27 27 27 27 26 24 22 21 21 21 21 22 22 23 22 21 20 20 20 20 20 21 20 19 19 18 18 17 17 16 16 16 16 17 17 17 17 17 17 18 19 19 19 19 20 20 19 19
26 24 22 21 21 19 18 17 16 15 14 13 11 10 10 10 10 11 11 11 12 12 13 14 14 15 16 17 18 19 20 22 23 24 24 25 26 27 27 27 28 26 24 23 23 23 23 22 23 23 23 22 21 21 20 20 20 21 21 20 19 19 19 18 17 16 16 16 16 17 16 16 16 16 16 16 18 18 19 19 19 20 20 20 20
25 24 22 20 19 17 17 16 16 15 14 12 11 11 11 12 12 12 12 13 14 15 16 17 18 19 20 21 22 22 21 23 25 26 26 27 27 28 28 28 28 27 25 24 24 25 26 24 24 24 23 22 21 21 20 20 20 21 20 20 19 19 19 18 17 16 16 16 17 17 17 16 16 16 17 17 18 19 19 19 19 19 19 19 20
21 21 20 18 17 16 16 15 15 14 13 13 12 12 13 14 14 14 15 15 16 17 19 19 21 23 24 24 26 25 24 25 28 28 28 29 30 30 30 30 29 28 27 27 27 29 28 26 25 25 23 22 21 21 20 20 20 20 19 18 18 19 19 18 17 16 16 16 17 17 17 17 16 16 17 18 18 19 19 18 19 18 18 19 19
18 17 16 17 18 17 16 16 16 15 15 14 14 14 15 16 16 17 17 18 19 20 21 21 23 25 26 27 29 28 26 27 29 29 28 28 29 31 32 33 33 32 31 29 29 31 30 27 26 26 24 22 22 21 20 20 20 18 17 17 17 18 18 18 17 16 16 17 17 17 17 17 16 16 17 17 18 19 18 18 18 18 18 18 18
17 17 17 18 20 20 19 19 20 18 17 16 15 16 17 17 18 18 18 19 21 22 23 23 24 26 27 27 27 26 25 24 25 26 27 27 27 29 31 32 33 33 33 31 31 32 31 28 27 26 24 23 23 21 20 20 19 17 16 16 17 17 18 18 17 17 17 17 17 17 16 16 16 16 17 17 18 18 18 17 17 16 16 17 17
20 21 20 19 21 22 22 23 22 19 17 16 15 15 16 16 17 17 18 19 21 22 23 23 23 24 24 24 24 24 23 21 23 27 29 26 23 26 29 31 30 29 31 33 33 31 28 27 27 26 24 23 23 21 20 20 18 16 15 15 15 16 17 18 18 17 16 17 18 17 16 16 16 16 17 17 17 18 18 17 16 16 16 16 17
24 23 22 21 22 22 22 22 20 18 16 15 14 14 14 15 16 17 17 18 18 20 20 20 20 21 20 21 21 19 17 20 25 29 28 22 19 22 27 29 29 28 29 31 32 29 28 27 27 26 25 24 22 21 20 20 18 17 16 15 13 15 17 19 18 17 16 17 18 18 17 16 16 16 17 18 18 18 18 17 16 16 16 17 18
22 22 21 20 20 20 20 19 18 16 15 14 14 13 13 15 16 17 17 17 17 18 18 18 18 19 19 20 19 16 15 21 28 29 26 22 20 21 22 24 26 28 30 32 33 33 32 32 30 27 25 24 23 23 22 21 20 20 17 13 11 14 17 18 18 17 16 17 18 17 16 15 16 16 17 18 18 18 18 18 17 17 18 19 19
17 18 18 18 18 19 19 19 17 16 15 14 14 14 14 14 16 16 17 17 17 17 17 17 17 18 19 18 16 14 14 20 25 26 26 25 23 23 23 23 25 28 30 32 34 33 34 35 33 30 27 25 25 23 21 20 21 19 14 10 11 14 16 17 17 16 16 16 17 16 15 15 16 16 17 18 18 18 18 18 18 18 19 19 20
15 16 16 16 17 17 18 18 17 17 17 17 16 16 16 16 16 17 17 17 18 18 18 18 17 18 19 18 16 15 16 19 21 25 28 28 26 27 28 28 29 29 30 31 33 34 35 36 35 32 28 25 23 22 22 21 18 12 8 9 12 14 14 15 16 16 15 16 16 16 15 15 15 16 17 17 17 18 18 18 19 19 19 20 20
12 13 14 15 17 18 19 19 20 20 20 20 20 20 20 19 19 18 18 18 19 19 19 19 18 19 18 17 15 15 16 17 20 24 27 27 26 26 27 27 28 29 29 30 32 34 34 34 31 27 24 23 24 25 24 18 11 7 7 10 13 14 15 15 15 14 14 14 14 14 14 14 15 16 17 17 17 17 17 18 18 19 19 20 20
12 13 15 16 18 20 21 22 22 23 23 23 24 24 23 22 21 20 20 20 21 21 20 19 19 18 17 15 14 14 17 20 22 23 24 23 22 23 23 23 23 24 27 29 30 30 29 27 24 23 23 25 25 22 15 9 5 6 8 11 12 13 14 14 14 13 13 13 14 14 14 15 16 16 17 17 17 17 17 18 19 20 20 20 21
16 17 18 19 21 22 23 24 25 26 26 27 27 27 26 25 23 21 21 20 21 21 20 18 17 16 14 14 15 18 22 24 22 21 21 21 20 21 19 17 17 20 23 26 26 24 22 22 22 23 24 22 16 10 5 5 6 9 11 12 13 13 13 13 12 12 12 13 14 14 14 15 16 17 17 18 18 18 18 19 19 20 21 21 21
20 21 22 23 24 25 26 26 27 28 28 28 28 27 26 25 23 22 20 18 17 17 16 14 14 14 15 16 19 24 25 23 20 20 20 19 18 17 15 14 16 18 20 21 21 21 20 21 22 20 17 11 6 5 7 8 9 10 12 13 12 12 12 12 12 11 12 13 13 13 15 16 17 18 18 18 18 18 19 19 20 21 22 23 24
23 24 24 25 25 26 26 26 27 27 27 27 26 26 25 24 21 19 17 15 15 16 15 12 12 16 21 23 25 26 24 21 19 18 18 18 17 15 13 13 14 16 17 19 20 21 20 19 17 14 10 7 6 7 8 8 8 9 10 11 11 12 13 13 13 12 12 13 14 15 17 18 19 19 19 19 19 20 21 22 23 24 25 26 26
23 23 24 24 24 25 25 25 25 25 26 25 25 25 24 22 18 16 14 11 12 16 18 17 17 20 23 25 25 23 21 19 17 15 16 17 17 15 13 14 15 16 17 19 20 20 18 17 15 13 10 8 7 7 6 6 8 9 10 11 12 12 12 12 12 13 13 14 16 18 19 19 19 19 19 20 21 22 23 24 25 26 27 27 28
21 22 23 23 24 24 24 23 23 23 23 23 23 23 22 18 17 17 16 13 12 16 19 20 19 19 20 21 22 20 18 17 15 14 15 16 16 14 14 15 16 17 18 19 19 18 16 14 11 9 7 6 5 5 6 7 8 9 9 9 10 10 11 12 13 14 16 17 18 19 20 20 20 20 20 21 22 23 24 26 26 27 28 29 30
18 19 20 21 21 22 22 22 21 21 20 20 20 20 18 16 16 19 21 18 16 18 20 19 18 18 19 20 18 16 15 14 14 14 14 16 16 16 15 16 17 17 18 18 16 13 10 8 7 7 6 4 4 5 6 7 7 8 8 9 9 10 12 14 15 16 18 19 19 20 20 20 20 20 21 22 23 25 26 27 28 29 30 31 31
16 16 16 16 17 18 18 18 18 18 17 16 15 15 15 15 15 17 19 18 18 18 19 18 17 17 17 16 14 12 12 12 13 15 16 16 17 16 16 16 16 16 15 12 9 8 9 8 6 4 3 3 5 6 7 7 7 8 8 9 10 12 14 15 17 18 19 19 19 18 18 19 20 21 22 24 26 27 28 29 30 31 32 32 33
13 14 14 14 14 14 14 14 15 15 14 12 11 12 14 15 16 17 18 18 19 18 17 16 15 15 13 12 12 13 14 15 16 17 17 17 17 16 16 15 15 14 12 10 10 10 7 5 3 2 3 5 6 7 7 7 8 8 9 10 12 14 16 17 18 18 18 18 17 18 19 20 22 24 25 27 28 29 30 30 31 32 33 34 34
12 12 12 13 13 13 12 11 11 12 12 12 11 12 14 15 14 14 14 14 14 14 14 14 14 14 14 15 17 17 18 18 17 16 15 13 13 13 12 12 12 11 12 13 11 7 5 4 3 4 5 7 8 8 8 8 9 10 11 13 15 15 16 16 16 16 16 17 18 20 21 23 25 26 27 28 29 30 30 31 32 33 34 34 35
9 9 10 12 13 13 11 7 6 6 9 12 14 14 14 14 13 12 11 11 11 12 14 15 16 17 18 19 19 19 18 17 15 13 11 10 11 11 11 11 11 12 13 11 8 6 6 5 5 6 8 9 9 8 8 9 11 12 13 13 13 14 14 14 15 16 17 19 20 22 23 25 26 27 28 29 30 31 32 32 33 33 34 34 35
5 5 6 7 9 8 6 4 4 5 8 10 12 13 14 15 16 15 15 15 15 16 18 18 19 18 18 17 17 16 15 14 12 11 11 11 12 12 11 12 13 13 13 10 8 7 8 9 10 10 10 9 8 8 9 10 11 11 11 12 12 13 14 15 16 18 19 21 22 23 24 25 26 27 28 30 31 31 32 32 32 33 35 37 39
3 2 2 3 3 3 3 3 5 6 7 8 9 10 12 14 16 17 19 20 20 21 21 20 18 17 16 16 15 14 13 12 11 12 12 12 11 12 13 14 15 15 14 12 10 10 11 12 12 11 9 8 8 9 9 9 9 10 10 11 12 13 15 16 18 19 20 21 22 23 24 25 27 28 29 29 30 31 32 34 35 37 39 40 41
2 1 4 5 4 2 3 4 5 5 6 6 8 10 12 13 15 17 19 20 21 21 20 18 16 15 15 14 13 12 11 11 11 12 12 12 13 15 16 15 15 14 13 12 12 13 12 11 9 8 8 7 7 8 8 9 9 9 10 11 13 15 16 18 18 19 20 21 23 24 25 26 27 28 29 30 32 34 36 38 39 40 40 40 39
3 3 5 6 5 3 3 4 4 4 5 6 7 8 10 12 14 17 19 19 19 18 16 15 14 13 13 12 12 12 12 12 13 14 14 15 17 17 15 14 13 12 11 12 11 10 9 7 7 7 6 7 7 8 8 9 10 11 12 14 16 16 17 18 19 20 22 23 24 25 26 27 28 30 32 34 36 37 37 38 38 37 37 38 38
3 3 3 6 7 5 3 3 2 3 4 4 3 1 2 6 10 13 15 15 14 13 12 12 12 12 12 11 11 12 12 14 15 15 16 16 16 14 13 12 12 11 10 9 8 7 6 6 6 6 7 7 7 8 9 11 13 14 15 16 16 17 18 19 20 21 22 23 24 26 28 30 32 33 34 35 35 35 35 35 36 36 36 37 38
1 2 3 4 5 5 4 2 1 1 2 2 3 5 6 5 5 7 8 8 9 8 8 8 8 8 8 8 9 9 10 12 13 14 14 14 14 13 12 11 11 10 9 8 7 6 6 6 6 6 7 7 9 11 12 13 13 14 15 15 16 17 18 19 20 21 23 25 27 29 31 32 32 33 33 33 33 34 34 35 35 36 36 37 37
3 1 1 3 4 4 3 2 1 1 1 2 4 6 8 8 7 8 8 8 8 9 9 9 9 9 9 9 8 8 8 9 10 12 13 14 13 12 10 9 9 8 8 7 5 5 5 5 6 7 8 10 12 12 12 12 13 13 15 16 16 17 18 20 22 24 26 28 29 30 30 31 31 31 31 32 32 33 34 34 35 36 37 37 38
2 2 1 1 2 3 3 2 2 3 4 4 5 6 8 8 8 8 8 8 8 8 8 8 8 8 7 7 7 6 7 8 9 11 13 13 12 10 9 9 8 7 6 5 5 5 5 6 7 9 11 11 11 11 11 12 13 14 14 15 17 18 21 23 24 26 27 28 29 29 29 30 30 31 31 32 32 33 34 35 35 36 37 38 38
Wind_Direction
233 235 239 239 236 237 243 253 259 261 260 259 260 268 272 271 268 260 258 260 257 253 249 245 243 239 233 229 225 226 224 216 211 211 213 215 215 218 221 221 220 221 225 229 227 230 240 248 255 265 276 284 288 291 297 308 313 311 307 298 295 299 302 302 303 305 312 317 317 316 313 313 317 314 311 317 322 321 323 327 330 331 331 334 338
233 236 239 238 236 237 246 256 258 258 257 258 263 270 272 272 267 259 257 258 257 254 251 247 245 242 239 233 227 227 226 217 211 209 212 217 217 216 220 222 222 226 230 231 232 234 238 246 253 259 267 274 279 282 290 302 308 305 300 296 295 296 295 295 295 301 311 315 317 318 315 313 314 313 313 316 320 321 325 329 333 335 333 335 339
231 234 236 237 236 240 249 255 255 254 255 259 266 269 270 270 264 257 256 257 255 253 253 250 246 246 245 241 237 234 227 219 213 208 211 217 216 213 214 214 219 228 230 229 232 234 237 244 249 254 262 270 275 277 284 295 301 299 296 295 296 292 288 287 288 298 310 315 319 320 316 313 314 314 314 316 319 324 328 331 336 336 334 336 340
228 232 235 236 238 243 250 251 248 250 254 260 265 266 267 266 263 261 260 261 258 254 256 254 249 246 245 245 245 237 227 222 219 213 213 214 211 209 207 208 218 227 227 229 233 232 234 240 243 252 264 272 277 278 282 290 293 293 293 295 296 289 284 284 287 298 309 316 319 319 313 311 313 313 314 317 323 329 333 335 337 336 336 338 339
228 231 233 235 240 244 246 243 243 248 254 259 263 263 263 263 264 266 264 264 263 259 262 266 262 255 253 251 246 234 223 221 222 218 215 211 206 204 203 208 220 225 225 232 235 230 230 236 242 256 269 276 280 279 279 283 287 289 292 295 294 288 284 284 287 297 310 316 317 314 310 308 310 313 317 321 327 332 336 337 336 335 335 336 337
229 230 231 237 241 242 239 237 241 248 253 257 258 258 261 264 267 268 267 266 267 265 268 272 269 260 253 250 244 233 222 219 221 219 213 208 201 199 205 218 228 226 230 236 231 227 228 233 243 256 269 280 284 279 275 277 282 287 290 293 293 290 287 285 288 297 307 312 312 309 309 308 310 315 319 323 328 332 336 336 334 333 333 333 336
230 229 232 237 238 235 231 233 240 246 250 252 253 255 261 266 267 269 266 262 267 273 268 263 265 262 254 248 246 237 226 220 220 217 212 204 195 195 210 231 235 228 231 233 227 227 229 232 244 258 271 283 284 276 273 274 279 282 285 289 290 288 286 283 285 293 302 308 310 309 308 308 312 316 319 323 328 331 333 332 331 331 330 331 334
228 228 232 235 232 227 227 232 238 242 246 248 250 255 261 264 267 268 264 261 268 276 269 259 265 268 256 246 240 235 232 227 219 216 216 204 192 194 215 237 237 230 228 227 226 230 232 235 249 264 278 288 283 275 271 272 276 278 280 285 287 286 284 281 282 290 299 307 309 308 307 309 313 315 317 322 327 329 329 329 329 328 327 329 332
225 226 230 229 224 223 227 231 234 239 245 247 251 257 260 263 267 268 267 266 268 271 270 267 265 258 249 242 233 231 235 230 216 214 217 204 192 198 222 238 237 231 227 226 227 230 234 240 254 270 283 289 284 275 271 271 273 275 278 283 286 287 284 280 282 288 297 305 307 306 307 309 312 315 318 322 325 325 324 325 326 325 326 328 330
223 223 226 224 220 223 227 229 233 240 244 246 251 257 262 267 271 273 271 265 258 262 271 275 270 255 245 241 235 231 231 228 218 212 209 202 197 202 221 240 238 232 228 228 228 231 237 245 260 274 283 287 283 274 269 269 270 273 276 279 283 285 283 281 281 285 293 301 303 303 305 308 311 314 318 320 320 319 319 321 324 324 325 327 330
220 220 221 221 219 222 226 227 233 238 240 244 249 255 265 273 277 278 273 258 255 262 267 271 272 259 248 242 237 232 225 222 221 210 204 208 206 205 221 244 241 234 231 230 231 237 244 253 265 275 281 284 280 271 267 266 266 269 273 276 280 283 282 281 281 284 291 297 299 300 302 305 308 311 313 315 314 314 316 318 320 322 323 325 328
219 218 219 220 220 222 225 227 231 234 236 243 249 257 268 278 282 283 271 251 252 260 261 265 263 243 244 242 230 225 220 219 219 211 211 216 206 203 223 244 240 234 233 231 235 244 252 260 267 273 279 281 275 267 264 263 263 267 271 274 279 281 281 281 281 284 289 292 295 298 301 303 305 308 309 310 311 312 313 315 316 319 322 323 326
217 217 218 221 222 222 223 225 226 229 233 241 249 259 270 276 281 274 249 235 240 244 247 257 244 218 228 223 204 208 216 217 214 214 222 216 200 201 225 241 234 232 232 234 242 251 258 265 269 272 276 274 269 264 261 261 263 266 268 272 276 279 281 280 280 283 286 288 292 296 298 301 303 306 308 308 310 311 311 312 314 318 322 322 323
216 217 219 220 221 220 220 221 221 223 229 238 249 260 262 261 261 242 216 212 216 221 227 238 231 217 213 202 196 202 208 208 207 217 224 210 196 203 225 234 230 233 235 240 249 256 262 267 269 271 272 269 265 262 260 261 263 264 266 269 273 276 279 279 279 282 284 287 291 293 296 300 302 305 307 308 309 309 309 312 314 318 320 320 319
217 217 218 218 218 217 214 215 215 217 224 234 246 251 241 238 237 211 193 194 194 196 203 204 212 219 217 215 209 204 204 207 211 221 221 205 197 207 227 235 234 237 239 244 251 258 264 266 267 268 266 263 262 260 261 261 261 262 265 267 271 275 277 278 279 280 282 286 289 292 295 299 302 304 305 306 307 307 308 310 312 314 316 317 317
218 217 217 216 215 213 209 210 209 208 216 226 237 236 225 224 222 202 187 187 187 188 195 196 202 213 218 220 216 210 210 212 216 221 217 206 204 215 231 241 244 243 243 247 252 256 261 264 264 264 262 260 260 260 261 260 260 262 264 266 270 273 274 276 277 279 283 286 289 292 295 298 301 303 304 305 306 307 309 309 310 313 316 318 319
217 216 214 213 212 208 204 204 202 199 205 215 218 215 213 216 216 203 191 186 181 183 195 203 211 216 219 220 217 214 213 214 217 221 217 211 213 223 235 243 246 245 246 252 254 255 258 261 262 262 261 260 260 260 260 261 262 263 263 264 268 269 271 275 278 281 284 286 289 293 296 299 301 302 305 307 308 310 310 311 312 316 317 317 317
215 213 212 211 208 203 200 198 193 191 197 202 203 204 207 212 214 209 200 190 186 193 200 203 210 218 222 222 220 219 219 219 221 223 222 220 222 227 235 240 241 243 248 253 255 256 257 258 261 262 261 260 260 259 260 261 262 263 263 264 266 269 272 275 277 281 283 286 289 292 295 298 301 303 306 308 309 311 310 310 312 313 311 310 311
210 209 209 208 204 199 198 193 187 189 193 195 198 201 205 210 215 217 214 207 206 211 212 213 219 225 229 230 228 228 227 225 225 226 225 225 225 228 234 238 240 244 250 253 254 255 256 257 258 259 259 259 258 258 259 260 262 263 264 264 266 269 272 274 275 278 281 284 288 291 294 298 301 304 308 309 309 309 308 308 309 308 307 307 310
206 206 206 206 202 199 195 189 186 191 194 195 198 202 209 217 220 222 225 224 224 226 227 231 236 238 239 237 235 234 233 231 230 230 229 227 227 231 237 241 244 249 254 255 253 253 254 254 254 255 256 256 257 257 258 258 259 261 262 264 267 269 270 272 274 276 279 282 286 291 294 297 300 304 306 307 308 308 307 307 307 306 306 308 309
202 203 205 205 202 199 195 191 191 195 198 200 203 206 214 224 227 228 230 230 232 236 239 244 251 254 253 248 242 238 237 236 234 233 233 233 234 237 241 245 248 250 253 255 254 253 253 253 253 253 254 254 256 256 257 257 258 259 261 264 267 269 270 271 274 277 280 283 286 289 292 294 297 299 301 303 305 305 305 305 305 305 307 309 309
198 198 201 205 205 202 199 198 199 202 203 205 208 212 220 229 233 236 238 238 240 243 247 252 257 260 262 260 253 243 239 239 240 239 239 239 240 243 245 247 250 253 254 256 258 258 256 254 253 253 253 254 255 255 256 257 258 258 260 262 266 269 270 271 273 276 280 283 286 287 288 290 292 296 299 301 302 302 303 304 304 306 308 309 310
193 192 196 201 206 208 207 207 209 210 210 211 213 217 225 231 236 240 243 244 246 248 252 256 259 261 263 263 260 253 245 242 240 239 240 243 244 246 247 248 251 254 254 255 257 258 256 254 253 253 253 253 253 253 254 255 256 257 259 262 266 269 270 272 275 278 282 285 286 287 288 290 293 297 300 301 301 301 302 303 305 307 309 309 310
184 187 192 194 202 212 216 217 220 219 219 221 220 223 231 237 241 245 247 249 251 253 257 261 264 266 265 265 267 266 260 253 249 243 241 243 245 248 249 249 250 252 251 250 250 253 254 253 251 252 252 251 251 250 250 251 252 254 257 262 267 270 273 276 279 282 284 286 287 290 292 294 296 298 299 299 300 301 301 303 305 306 307 308 308
174 179 183 188 199 209 215 223 230 230 229 229 227 230 235 240 244 249 252 255 258 259 263 267 269 271 271 270 272 271 267 264 264 261 256 253 253 254 254 252 251 251 250 249 248 250 251 249 247 249 249 247 247 247 248 248 249 250 255 261 267 272 276 279 281 283 284 286 287 290 293 295 296 297 298 299 300 300 300 301 304 306 307 307 306
175 175 177 188 201 207 213 225 235 238 237 237 236 237 240 244 249 253 257 260 262 263 267 270 272 273 274 275 278 280 279 277 277 277 272 267 265 264 263 261 258 255 253 251 250 250 249 246 244 245 244 243 243 243 242 243 244 247 254 262 267 273 277 279 281 283 285 287 288 289 289 291 293 296 298 299 300 300 300 301 303 305 305 303 301
181 179 181 192 204 212 222 232 239 243 243 242 242 242 244 249 253 257 262 264 265 267 269 272 274 276 278 279 281 284 285 286 285 279 271 265 264 268 269 269 268 265 263 258 250 245 243 240 239 240 240 238 238 235 235 237 240 244 252 259 266 273 277 278 280 283 287 289 289 288 289 291 294 297 299 299 299 299 300 303 305 305 303 300 297
176 180 187 198 209 222 233 240 245 251 252 251 250 248 248 251 253 257 261 262 264 267 269 272 276 278 279 280 278 277 281 283 278 270 263 258 264 273 275 275 273 271 269 266 260 251 242 235 232 233 232 230 228 225 226 229 232 236 241 248 261 273 276 278 281 285 289 291 290 291 295 297 300 302 302 301 300 300 301 304 306 304 301 298 298
175 184 195 207 221 235 246 250 252 256 259 261 263 262 260 261 261 262 264 264 264 265 266 269 274 274 275 276 272 270 280 283 276 270 267 270 277 282 284 284 278 272 269 269 267 257 242 232 229 228 226 223 219 218 220 223 228 232 234 241 260 272 276 279 284 287 291 291 290 293 298 301 303 304 303 302 302 303 304 305 306 304 303 303 304
180 191 203 216 227 238 247 252 254 257 262 267 271 271 271 270 268 268 268 268 267 265 264 265 267 268 271 273 267 259 264 273 275 276 278 280 283 284 282 279 276 273 272 270 263 248 233 227 226 223 220 216 214 215 219 223 227 230 234 250 267 271 273 280 284 286 288 288 288 294 301 305 305 304 303 303 304 305 306 306 306 305 306 308 309
191 200 210 219 228 236 243 250 256 262 268 272 276 278 277 274 271 269 267 266 265 264 263 264 264 264 265 265 261 257 259 267 276 281 281 281 284 285 281 275 271 270 271 267 257 242 232 228 226 222 218 216 219 224 227 227 227 231 243 261 267 267 271 275 277 279 282 286 291 299 305 306 305 304 304 304 305 306 307 308 308 309 309 309 308
211 219 226 234 242 249 256 264 271 275 277 278 278 278 276 274 272 270 267 265 264 262 261 260 261 262 263 261 260 261 264 268 273 277 280 284 287 287 284 280 275 269 265 260 250 240 236 235 231 227 226 228 232 234 231 226 226 239 256 261 264 267 268 267 269 276 283 290 298 304 307 307 306 305 304 304 305 308 310 309 308 308 308 308 308
236 241 246 251 256 261 266 271 275 276 276 276 274 274 274 272 271 268 264 261 260 259 259 258 258 258 258 261 264 267 268 268 270 275 281 285 286 285 284 284 280 271 263 257 249 244 243 242 237 235 235 233 230 226 219 215 233 253 257 259 262 264 265 266 272 279 285 293 300 304 305 305 304 302 303 305 306 307 307 306 305 306 307 309 309
248 252 255 257 260 263 266 267 268 269 269 270 271 272 273 271 268 266 261 258 257 257 255 255 259 259 257 259 265 266 264 265 271 279 283 282 280 279 280 281 276 267 260 256 252 249 246 241 236 234 232 226 219 211 207 224 241 248 254 258 259 261 265 269 274 279 285 292 297 299 299 299 298 299 302 304 305 306 306 305 306 306 306 306 306
253 255 256 257 258 259 260 262 263 264 266 267 268 269 269 268 266 264 259 256 259 263 259 253 255 259 259 261 263 261 260 263 272 280 281 279 278 277 274 271 267 262 257 254 251 246 240 234 230 226 219 209 203 220 233 233 236 244 254 259 259 260 263 268 275 282 287 291 292 292 293 294 296 299 301 302 303 303 303 302 302 301 301 302 303
255 257 257 258 259 260 261 262 263 264 265 267 267 266 266 265 264 264 261 253 247 253 259 257 252 256 262 263 261 258 258 263 269 274 275 276 276 272 262 256 255 253 250 247 242 237 231 223 213 204 195 192 210 230 236 240 244 248 251 251 252 256 263 273 281 285 287 288 287 289 291 294 296 298 299 300 300 300 300 301 301 302 303 304 305
257 259 259 260 260 261 261 262 264 265 267 268 269 269 268 266 265 268 270 260 243 241 247 250 250 255 262 263 260 258 260 262 261 261 265 270 269 260 247 239 236 235 236 234 230 226 218 207 195 187 186 195 211 225 240 250 252 252 250 250 254 261 267 273 277 279 281 283 285 288 292 295 297 298 299 299 300 301 302 303 304 304 305 305 306
258 259 260 261 262 262 262 263 263 265 267 269 271 271 267 264 262 258 254 253 252 247 246 246 247 249 252 254 252 251 252 251 250 252 256 257 253 244 236 229 224 224 226 227 225 220 212 199 188 180 177 186 204 228 248 254 255 255 253 250 252 257 261 267 272 276 280 282 286 291 294 294 296 298 299 300 301 301 302 303 303 303 304 304 305
260 261 262 263 263 264 265 265 265 267 269 270 270 266 257 248 247 246 242 241 247 250 247 244 241 241 243 244 244 243 242 242 243 245 244 241 236 230 225 221 220 222 224 222 218 207 188 167 154 151 159 183 219 236 241 239 238 239 242 244 252 260 267 274 278 280 282 286 289 291 292 293 295 298 299 300 300 301 302 302 302 303 303 303 304
262 262 261 260 260 260 260 261 264 265 267 268 267 259 244 234 236 241 241 238 240 244 244 240 236 234 234 234 235 241 246 244 240 236 232 229 225 219 215 215 216 215 212 202 182 149 130 128 133 143 169 208 221 223 226 229 233 240 249 258 266 273 278 281 283 284 287 289 289 290 291 294 297 298 299 300 301 302 303 303 303 303 304 304 304
263 262 258 254 253 250 249 254 257 253 251 256 256 245 236 232 232 236 238 236 231 228 226 224 223 223 224 228 237 245 244 237 231 229 227 225 223 220 218 217 215 205 186 157 129 114 115 128 145 168 192 201 206 215 227 235 243 254 263 272 278 283 284 286 286 288 288 288 288 291 294 295 296 298 300 301 303 303 304 304 304 304 305 304 305
261 259 251 244 240 236 237 246 247 237 234 236 232 228 232 234 230 228 231 229 220 211 207 208 213 222 232 238 240 239 235 229 227 228 230 229 227 224 220 215 204 181 151 131 123 127 143 155 162 179 192 198 204 211 220 233 252 267 278 283 286 287 288 289 290 290 290 291 293 294 295 295 297 299 300 302 303 303 303 303 303 303 304 304 305
260 255 244 235 229 224 221 224 226 225 233 235 227 225 233 235 227 221 224 224 215 208 208 212 219 228 234 236 235 234 233 231 232 235 235 230 223 217 207 193 173 150 135 131 140 157 167 169 181 196 201 202 206 218 239 261 276 283 285 286 287 288 290 293 294 295 295 295 295 295 297 298 300 301 301 302 302 302 302 303 303 304 305 306 307
283 268 245 233 229 222 215 221 234 240 245 241 231 227 233 235 230 224 220 215 209 207 208 214 220 226 228 229 233 236 236 236 239 242 236 226 217 206 187 165 150 143 142 149 160 170 177 186 195 202 207 217 235 259 274 279 280 280 281 283 286 290 294 296 296 296 296 296 297 298 299 300 300 300 301 301 302 303 304 305 306 307 308 308 309
317 280 211 189 197 203 205 229 242 240 239 241 239 237 237 236 232 224 214 205 201 202 205 210 215 220 225 229 234 235 235 237 241 238 227 214 197 176 158 148 146 148 152 159 170 180 188 194 202 213 228 248 264 270 272 272 274 278 284 287 291 295 297 297 297 297 297 298 299 299 299 299 300 301 303 304 306 308 309 309 309 309 309 309 310
1 111 143 138 138 167 202 221 238 246 250 259 266 261 250 238 229 224 218 212 208 209 212 216 220 225 229 230 230 230 231 233 232 222 207 185 165 153 147 145 145 148 156 168 180 189 195 203 217 234 247 257 264 267 272 278 283 287 292 295 298 300 299 297 297 297 297 297 298 299 300 302 304 306 308 310 311 311 311 311 311 311 312 312 312
31 81 127 143 149 172 220 238 254 278 293 297 292 276 255 237 226 222 222 221 220 219 221 224 226 228 228 228 228 228 223 212 203 193 178 164 156 151 145 143 146 155 168 179 186 194 204 217 232 245 254 261 269 275 280 286 292 297 300 301 300 298 296 296 297 298 299 300 301 303 305 308 310 311 312 312 312 312 313 313 313 314 314 314 314
25 53 103 141 155 172 208 232 257 315 330 333 340 354 213 217 219 219 219 220 220 219 219 219 218 220 221 220 221 220 211 199 191 183 172 164 158 152 149 152 160 170 181 189 193 201 217 232 247 260 265 266 269 276 285 292 297 299 299 297 297 297 298 299 301 302 303 305 307 309 311 312 312 313 313 314 314 315 315 315 316 316 316 315 315
325 36 70 109 133 150 164 171 156 8 355 10 67 87 101 126 162 182 189 192 191 190 191 192 193 194 192 186 185 186 185 183 182 177 169 159 153 152 155 163 171 179 188 195 201 212 232 250 259 261 261 266 276 286 293 297 298 298 298 298 299 301 302 303 305 307 310 311 312 313 314 315 315 316 317 317 318 318 318 318 318 318 318 318 318
232 221 108 108 121 138 148 144 123 130 180 161 125 108 106 113 124 134 139 142 143 143 144 149 155 157 158 159 160 161 159 159 159 157 150 146 146 151 157 163 171 178 187 197 209 226 241 247 250 258 270 282 289 293 296 298 298 299 299 300 300 302 306 309 311 313 314 315 316 317 317 318 319 319 320 320 320 320 320 321 321 320 320 321 322
247 246 223 135 124 140 159 152 136 152 166 157 133 119 117 120 124 126 125 124 127 131 137 144 148 150 150 150 147 141 134 132 135 138 140 142 145 150 154 161 169 180 191 203 213 222 231 245 262 276 284 288 291 293 296 298 299 300 301 302 306 309 313 315 316 317 318 318 320 321 321 321 322 322 323 323 323 322 323 323 323 324 324 325 325
Height
3101 3102 3104 3105 3107 3108 3110 3111 3112 3112 3113 3113 3114 3114 3114 3114 3114 3114 3113 3113 3112 3112 3113 3114 3115 3116 3116 3116 3117 3119 3121 3123 3124 3126 3127 3129 3130 3132 3133 3134 3135 3136 3137 3138 3139 3140 3141 3142 3142 3142 3142 3142 3141 3141 3140 3140 3139 3137 3137 3137 3136 3135 3134 3133 3134 3133 3133 3132 3131 3130 3128 3127 3126 3125 3123 3122 3122 3120 3119 3117 3115 3113 3112 3110 3109
3099 3100 3102 3103 3105 3107 3108 3109 3110 3110 3111 3111 3112 3112 3112 3112 3112 3111 3110 3110 3109 3109 3110 3111 3111 3112 3112 3112 3114 3118 3119 3120 3121 3122 3124 3126 3128 3129 3131 3132 3133 3134 3135 3137 3138 3139 3140 3140 3141 3141 3141 3140 3140 3140 3139 3138 3137 3137 3136 3136 3135 3134 3133 3133 3133 3132 3132 3131 3129 3128 3127 3126 3125 3124 3122 3121 3120 3119 3117 3116 3114 3111 3110 3108 3107
3097 3098 3099 3101 3103 3105 3106 3107 3108 3108 3109 3110 3111 3110 3110 3110 3109 3109 3108 3108 3107 3107 3107 3107 3108 3109 3109 3110 3114 3116 3117 3117 3118 3120 3122 3124 3125 3127 3128 3130 3131 3133 3134 3135 3136 3137 3138 3139 3139 3139 3139 3139 3139 3139 3138 3137 3136 3136 3135 3135 3134 3133 3132 3132 3132 3131 3130 3129 3128 3126 3125 3124 3123 3122 3121 3120 3118 3117 3115 3114 3112 3110 3108 3106 3105
3094 3096 3097 3099 3101 3102 3103 3104 3106 3106 3107 3108 3109 3108 3108 3108 3107 3107 3106 3106 3106 3106 3104 3103 3105 3108 3108 3110 3113 3114 3114 3115 3118 3119 3120 3121 3123 3125 3127 3129 3130 3132 3133 3134 3135 3136 3136 3137 3137 3137 3138 3138 3138 3137 3137 3136 3135 3135 3134 3133 3132 3132 3131 3131 3130 3130 3129 3127 3126 3125 3124 3123 3122 3121 3119 3118 3117 3115 3113 3111 3109 3108 3106 3104 3102
3092 3093 3095 3097 3098 3100 3101 3102 3103 3104 3106 3107 3106 3106 3106 3106 3105 3105 3105 3105 3104 3104 3103 3101 3104 3107 3107 3108 3110 3111 3112 3114 3115 3117 3118 3119 3121 3123 3125 3128 3129 3130 3131 3132 3134 3134 3135 3135 3135 3136 3136 3136 3136 3135 3135 3134 3134 3133 3133 3132 3131 3130 3130 3129 3129 3128 3127 3125 3124 3124 3123 3122 3121 3119 3118 3116 3115 3113 3111 3109 3107 3106 3104 3102 3100
3089 3091 3093 3095 3096 3097 3098 3100 3101 3103 3104 3105 3104 3104 3104 3104 3104 3103 3104 3104 3103 3102 3102 3101 3101 3103 3103 3104 3106 3108 3110 3111 3112 3114 3116 3117 3120 3122 3125 3127 3128 3129 3130 3131 3132 3133 3133 3133 3134 3134 3134 3134 3134 3133 3133 3133 3132 3132 3131 3130 3130 3129 3128 3128 3127 3126 3125 3124 3123 3122 3121 3120 3119 3117 3116 3114 3113 3111 3110 3108 3107 3105 3103 3101 3099
3087 3089 3091 3092 3094 3095 3096 3098 3099 3101 3102 3102 3102 3102 3102 3102 3102 3102 3102 3102 3101 3101 3101 3100 3099 3099 3101 3102 3103 3105 3107 3109 3111 3112 3114 3116 3119 3121 3124 3126 3127 3128 3129 3130 3131 3131 3131 3132 3132 3133 3133 3132 3132 3131 3131 3131 3131 3130 3130 3129 3128 3127 3127 3126 3125 3124 3124 3122 3121 3120 3120 3118 3117 3116 3114 3113 3112 3110 3109 3108 3106 3104 3102 3100 3098
3085 3087 3088 3090 3091 3093 3095 3096 3097 3099 3099 3100 3100 3100 3100 3100 3100 3100 3100 3100 3099 3099 3098 3098 3099 3100 3101 3101 3102 3103 3105 3106 3109 3110 3112 3114 3117 3120 3123 3124 3126 3127 3127 3128 3129 3129 3130 3131 3131 3131 3131 3131 3130 3129 3129 3129 3129 3129 3128 3127 3127 3126 3125 3124 3123 3123 3122 3121 3120 3119 3118 3117 3115 3114 3113 3112 3110 3109 3108 3107 3105 3103 3101 3099 3097
3083 3085 3086 3088 3089 3091 3093 3094 3095 3097 3097 3098 3098 3098 3098 3098 3098 3099 3098 3098 3099 3098 3097 3097 3098 3099 3100 3100 3101 3102 3103 3104 3106 3108 3110 3113 3116 3119 3122 3123 3124 3125 3126 3127 3127 3128 3128 3129 3129 3129 3129 3129 3128 3128 3127 3127 3127 3127 3126 3125 3125 3124 3123 3122 3122 3121 3120 3119 3118 3117 3116 3115 3114 3112 3111 3110 3109 3108 3107 3105 3104 3102 3100 3098 3096
3081 3083 3084 3085 3087 3089 3091 3092 3094 3095 3095 3096 3097 3097 3096 3096 3097 3097 3097 3097 3098 3097 3097 3097 3098 3098 3099 3100 3101 3101 3102 3103 3105 3108 3109 3112 3115 3118 3120 3122 3123 3124 3124 3125 3126 3126 3127 3127 3128 3127 3127 3127 3126 3126 3126 3126 3125 3125 3124 3124 3123 3123 3122 3121 3120 3119 3118 3117 3117 3116 3115 3113 3112 3111 3109 3108 3107 3106 3105 3104 3103 3101 3099 3097 3095
3079 3080 3082 3083 3086 3088 3089 3091 3092 3093 3094 3094 3095 3095 3095 3095 3095 3096 3096 3096 3096 3096 3096 3097 3097 3098 3098 3099 3099 3100 3101 3102 3104 3106 3108 3111 3114 3117 3119 3121 3122 3122 3123 3123 3124 3125 3125 3125 3125 3125 3125 3125 3124 3124 3124 3124 3123 3123 3122 3122 3121 3121 3120 3119 3118 3117 3117 3116 3115 3114 3113 3112 3111 3109 3108 3107 3106 3105 3104 3103 3101 3100 3097 3095 3094
3076 3078 3080 3082 3084 3086 3088 3089 3090 3091 3092 3093 3093 3094 3093 3093 3094 3095 3095 3095 3095 3096 3096 3097 3098 3098 3097 3097 3098 3099 3100 3101 3104 3106 3108 3110 3113 3116 3118 3120 3120 3121 3121 3122 3122 3123 3123 3123 3123 3123 3123 3123 3123 3122 3122 3122 3121 3121 3120 3119 3119 3119 3118 3117 3116 3115 3115 3114 3114 3113 3111 3110 3109 3108 3107 3105 3104 3103 3102 3101 3100 3098 3096 3094 3093
3074 3076 3078 3080 3082 3085 3086 3087 3089 3090 3090 3091 3092 3092 3092 3092 3093 3094 3094 3094 3095 3096 3096 3097 3098 3098 3097 3097 3098 3100 3101 3102 3104 3105 3107 3109 3112 3115 3117 3119 3119 3119 3120 3120 3120 3121 3121 3121 3121 3121 3121 3121 3121 3120 3120 3120 3119 3119 3118 3117 3117 3116 3116 3115 3114 3113 3113 3112 3112 3111 3110 3108 3107 3106 3105 3104 3102 3101 3100 3099 3098 3097 3095 3093 3091
3073 3074 3076 3079 3081 3083 3085 3086 3087 3088 3089 3090 3090 3090 3091 3091 3092 3093 3093 3094 3094 3095 3096 3097 3097 3098 3098 3098 3099 3100 3101 3102 3103 3105 3107 3109 3111 3114 3116 3117 3117 3117 3118 3118 3118 3119 3119 3119 3119 3119 3119 3119 3118 3118 3118 3117 3117 3116 3115 3115 3114 3114 3113 3113 3112 3111 3111 3110 3110 3109 3108 3106 3105 3104 3103 3102 3101 3099 3098 3097 3096 3095 3093 3092 3090
3071 3073 3075 3077 3080 3082 3083 3085 3086 3087 3088 3088 3088 3089 3089 3090 3091 3091 3093 3093 3094 3095 3096 3096 3097 3097 3098 3098 3099 3100 3101 3102 3103 3104 3106 3108 3110 3112 3113 3114 3114 3115 3116 3116 3116 3116 3116 3117 3117 3117 3117 3116 3116 3116 3115 3115 3114 3114 3113 3113 3112 3112 3111 3111 3110 3109 3109 3108 3107 3107 3106 3104 3103 3102 3101 3100 3099 3098 3096 3095 3094 3093 3091 3090 3088
3069 3071 3074 3076 3078 3080 3082 3083 3084 3085 3086 3086 3086 3087 3088 3089 3089 3090 3092 3093 3094 3095 3095 3096 3097 3097 3098 3098 3098 3099 3101 3102 3103 3104 3106 3107 3108 3110 3111 3112 3112 3113 3113 3114 3114 3114 3114 3115 3115 3115 3114 3114 3113 3113 3113 3112 3112 3111 3111 3110 3110 3109 3109 3108 3108 3107 3107 3106 3105 3105 3104 3103 3101 3100 3099 3098 3097 3096 3094 3093 3091 3090 3089 3087 3086
3068 3070 3073 3075 3078 3079 3081 3082 3083 3083 3084 3084 3085 3086 3086 3087 3088 3090 3091 3092 3093 3094 3095 3096 3096 3097 3097 3098 3098 3099 3100 3101 3102 3103 3104 3105 3107 3108 3109 3110 3110 3111 3111 3111 3112 3113 3113 3112 3112 3112 3112 3111 3111 3111 3110 3110 3109 3109 3108 3108 3107 3107 3106 3106 3105 3105 3104 3104 3103 3102 3101 3100 3099 3098 3097 3096 3094 3093 3092 3090 3089 3087 3086 3085 3083
3067 3070 3072 3075 3076 3078 3079 3080 3081 3081 3082 3083 3083 3084 3085 3086 3087 3089 3090 3091 3092 3093 3094 3095 3096 3096 3096 3096 3097 3098 3099 3100 3101 3102 3103 3104 3105 3106 3107 3108 3108 3109 3109 3110 3110 3110 3110 3110 3110 3110 3110 3109 3109 3109 3108 3108 3107 3106 3106 3105 3105 3105 3104 3104 3103 3103 3102 3102 3101 3100 3099 3098 3097 3096 3095 3093 3092 3091 3089 3088 3087 3086 3084 3083 3081
3065 3069 3072 3074 3075 3076 3077 3078 3079 3079 3080 3081 3082 3082 3083 3084 3086 3087 3089 3090 3091 3092 3093 3094 3094 3095 3095 3095 3096 3096 3097 3098 3099 3100 3101 3102 3103 3104 3104 3105 3106 3106 3107 3108 3108 3108 3108 3108 3108 3107 3107 3107 3106 3106 3106 3105 3104 3104 3103 3103 3103 3102 3102 3102 3101 3101 3100 3100 3099 3098 3097 3096 3095 3093 3092 3091 3090 3089 3088 3086 3085 3084 3083 3081 3079
3065 3068 3071 3073 3074 3075 3075 3076 3077 3078 3078 3079 3080 3081 3082 3083 3084 3086 3087 3089 3090 3091 3092 3092 3093 3093 3094 3094 3094 3095 3095 3096 3097 3098 3099 3100 3101 3101 3102 3102 3103 3104 3104 3104 3105 3105 3105 3105 3105 3104 3104 3104 3104 3103 3103 3103 3102 3102 3101 3101 3101 3101 3100 3100 3099 3099 3098 3097 3097 3096 3095 3094 3092 3091 3089 3088 3087 3086 3085 3084 3083 3081 3080 3079 3077
3065 3067 3070 3072 3073 3074 3075 3076 3076 3076 3077 3077 3078 3079 3080 3081 3083 3084 3086 3087 3088 3089 3090 3091 3091 3092 3092 3092 3093 3093 3093 3094 3095 3096 3096 3097 3098 3098 3099 3100 3100 3100 3100 3101 3101 3102 3102 3102 3102 3101 3101 3100 3101 3101 3100 3100 3100 3100 3099 3099 3099 3099 3098 3098 3097 3096 3095 3095 3094 3094 3093 3092 3091 3089 3088 3086 3085 3084 3083 3082 3081 3079 3078 3076 3075
3064 3066 3069 3071 3073 3074 3075 3075 3075 3075 3076 3076 3077 3078 3079 3080 3081 3083 3084 3085 3086 3087 3088 3089 3090 3090 3090 3090 3090 3089 3090 3091 3091 3092 3093 3094 3094 3095 3096 3096 3097 3097 3097 3097 3097 3098 3098 3098 3098 3097 3097 3097 3098 3098 3098 3098 3098 3098 3097 3097 3097 3097 3096 3095 3095 3094 3093 3093 3092 3092 3091 3090 3088 3087 3086 3085 3084 3083 3081 3080 3078 3077 3075 3074 3072
3061 3064 3067 3070 3072 3074 3075 3075 3075 3075 3075 3075 3076 3077 3078 3079 3080 3081 3082 3083 3084 3085 3086 3087 3088 3087 3087 3087 3086 3085 3087 3088 3088 3089 3090 3090 3091 3091 3092 3093 3094 3094 3094 3094 3094 3094 3094 3094 3094 3094 3094 3094 3095 3095 3095 3095 3095 3095 3095 3094 3095 3094 3094 3093 3092 3092 3091 3090 3090 3089 3089 3088 3086 3085 3083 3083 3082 3081 3079 3078 3076 3075 3073 3071 3070
3059 3062 3065 3067 3070 3073 3074 3074 3074 3074 3074 3074 3074 3075 3076 3077 3078 3079 3080 3081 3082 3083 3084 3085 3085 3085 3085 3085 3083 3083 3084 3085 3084 3085 3086 3087 3087 3088 3088 3089 3090 3090 3090 3090 3091 3090 3090 3091 3091 3090 3091 3092 3092 3092 3092 3092 3092 3092 3092 3092 3092 3092 3092 3091 3091 3090 3089 3088 3087 3087 3086 3085 3084 3082 3081 3080 3079 3079 3077 3076 3074 3073 3071 3070 3068
3059 3061 3063 3066 3069 3072 3073 3073 3073 3073 3072 3073 3073 3074 3074 3075 3076 3077 3078 3079 3080 3081 3081 3082 3083 3082 3082 3082 3082 3082 3082 3083 3082 3082 3083 3084 3084 3084 3085 3085 3085 3085 3085 3086 3087 3087 3087 3087 3087 3087 3088 3089 3089 3089 3089 3089 3089 3090 3090 3090 3090 3090 3090 3089 3089 3088 3087 3087 3086 3085 3084 3083 3082 3080 3079 3078 3077 3076 3075 3074 3073 3071 3070 3068 3067
3060 3060 3063 3066 3069 3070 3071 3072 3072 3071 3071 3071 3071 3072 3072 3073 3074 3075 3076 3077 3077 3078 3079 3080 3080 3080 3079 3079 3080 3080 3080 3081 3081 3080 3080 3080 3081 3081 3081 3081 3081 3079 3079 3081 3083 3082 3083 3083 3083 3083 3084 3085 3085 3086 3086 3086 3086 3087 3087 3088 3088 3088 3088 3088 3087 3087 3086 3085 3084 3084 3083 3081 3080 3078 3077 3076 3075 3074 3073 3072 3071 3069 3068 3066 3065
3060 3061 3063 3066 3068 3069 3070 3071 3070 3070 3070 3070 3070 3070 3071 3071 3072 3073 3073 3074 3074 3075 3076 3077 3077 3077 3077 3077 3077 3077 3077 3077 3077 3076 3076 3077 3077 3077 3076 3076 3077 3076 3076 3077 3078 3078 3079 3079 3079 3079 3080 3081 3082 3082 3083 3083 3083 3084 3084 3085 3085 3086 3086 3086 3085 3085 3084 3083 3082 3082 3081 3079 3078 3076 3075 3074 3073 3072 3070 3069 3068 3067 3065 3064 3062
3058 3060 3062 3064 3066 3068 3068 3068 3067 3067 3067 3067 3067 3068 3068 3069 3069 3070 3071 3071 3072 3072 3073 3074 3074 3074 3074 3074 3074 3074 3074 3074 3074 3073 3073 3073 3074 3073 3073 3072 3073 3073 3073 3074 3075 3076 3075 3075 3074 3075 3076 3077 3078 3079 3080 3079 3079 3080 3081 3082 3083 3084 3084 3083 3083 3083 3082 3081 3080 3079 3078 3077 3075 3074 3072 3071 3071 3069 3068 3067 3066 3064 3063 3061 3060
3057 3059 3061 3063 3064 3065 3065 3065 3065 3064 3064 3065 3065 3065 3066 3067 3067 3067 3068 3069 3069 3069 3070 3071 3072 3072 3072 3071 3071 3071 3071 3071 3071 3071 3070 3070 3071 3070 3069 3069 3068 3068 3069 3069 3070 3071 3070 3069 3070 3071 3072 3074 3075 3076 3076 3076 3076 3076 3077 3079 3081 3082 3082 3081 3080 3080 3080 3079 3077 3077 3076 3074 3073 3072 3071 3069 3068 3067 3066 3064 3063 3062 3060 3059 3058
3057 3059 3060 3062 3063 3063 3063 3062 3062 3062 3062 3062 3063 3063 3064 3064 3065 3065 3065 3066 3066 3066 3067 3068 3069 3069 3069 3069 3068 3068 3068 3068 3068 3068 3067 3067 3067 3067 3066 3066 3065 3064 3064 3065 3065 3065 3064 3063 3064 3066 3068 3069 3071 3072 3073 3073 3073 3073 3075 3076 3078 3079 3079 3079 3078 3078 3077 3076 3075 3074 3074 3072 3071 3070 3069 3068 3066 3065 3064 3062 3061 3060 3058 3057 3056
3056 3058 3059 3060 3060 3061 3060 3060 3060 3060 3060 3060 3060 3061 3061 3062 3062 3062 3062 3063 3063 3063 3064 3064 3065 3066 3066 3065 3065 3065 3065 3065 3065 3065 3065 3064 3065 3065 3064 3063 3062 3061 3060 3060 3060 3060 3059 3058 3059 3061 3063 3066 3068 3070 3071 3071 3071 3071 3073 3075 3076 3077 3077 3077 3076 3075 3075 3074 3072 3072 3071 3070 3069 3068 3067 3066 3065 3063 3062 3060 3059 3057 3056 3055 3054
3054 3055 3056 3057 3057 3057 3057 3057 3057 3057 3057 3057 3057 3058 3058 3058 3058 3059 3059 3059 3059 3060 3060 3061 3061 3062 3062 3062 3062 3062 3062 3062 3062 3062 3062 3062 3062 3062 3061 3060 3059 3057 3057 3057 3056 3056 3056 3057 3058 3060 3062 3065 3066 3067 3067 3068 3069 3070 3072 3073 3074 3075 3075 3074 3073 3073 3072 3071 3070 3069 3069 3068 3068 3067 3066 3064 3063 3062 3060 3059 3057 3055 3054 3053 3051
3053 3053 3054 3054 3055 3055 3055 3055 3055 3055 3055 3054 3054 3055 3055 3055 3055 3055 3055 3056 3056 3056 3056 3057 3057 3058 3058 3058 3059 3059 3059 3059 3059 3059 3060 3060 3059 3058 3057 3057 3056 3054 3054 3054 3054 3055 3056 3057 3058 3060 3061 3062 3063 3063 3064 3066 3068 3069 3071 3071 3072 3072 3072 3071 3071 3070 3069 3068 3068 3068 3067 3066 3066 3065 3064 3062 3061 3060 3059 3057 3055 3054 3052 3051 3049
3051 3051 3051 3052 3052 3052 3052 3052 3052 3052 3052 3051 3051 3051 3051 3051 3051 3051 3052 3052 3052 3053 3053 3054 3054 3054 3055 3055 3055 3055 3055 3056 3056 3056 3056 3056 3056 3055 3054 3053 3052 3052 3052 3053 3053 3054 3055 3056 3057 3058 3059 3059 3060 3061 3063 3066 3068 3069 3069 3070 3070 3070 3069 3068 3068 3068 3067 3067 3066 3066 3065 3065 3064 3063 3062 3061 3059 3058 3056 3055 3053 3052 3050 3049 3047
3047 3048 3048 3048 3048 3048 3048 3048 3048 3048 3048 3048 3048 3048 3048 3047 3048 3048 3048 3049 3049 3050 3050 3051 3051 3052 3052 3052 3052 3052 3052 3053 3053 3053 3053 3052 3052 3051 3051 3050 3050 3050 3051 3052 3053 3053 3054 3055 3056 3056 3056 3057 3059 3062 3064 3066 3067 3068 3068 3068 3068 3067 3066 3066 3066 3066 3065 3065 3065 3064 3064 3063 3062 3061 3060 3059 3057 3056 3054 3053 3051 3049 3048 3046 3045
3044 3044 3044 3044 3044 3044 3044 3044 3044 3044 3045 3045 3045 3045 3044 3044 3045 3045 3045 3046 3047 3047 3048 3048 3049 3049 3049 3049 3049 3049 3050 3050 3050 3050 3050 3050 3049 3048 3048 3048 3048 3049 3050 3050 3051 3052 3052 3053 3054 3054 3055 3058 3060 3063 3064 3065 3066 3066 3066 3066 3066 3065 3065 3064 3064 3064 3064 3063 3063 3062 3062 3061 3060 3059 3058 3056 3055 3053 3052 3050 3048 3047 3045 3043 3042
3041 3041 3041 3041 3041 3041 3041 3041 3041 3041 3041 3041 3041 3041 3041 3041 3042 3042 3043 3043 3044 3045 3045 3046 3046 3046 3047 3047 3047 3047 3047 3048 3047 3048 3048 3047 3046 3046 3046 3046 3047 3047 3047 3048 3049 3049 3050 3051 3052 3053 3055 3058 3060 3062 3063 3063 3064 3064 3064 3064 3064 3064 3063 3063 3063 3062 3062 3061 3061 3060 3059 3058 3057 3056 3055 3054 3052 3051 3049 3047 3046 3044 3042 3040 3039
3038 3038 3038 3038 3037 3037 3038 3038 3038 3038 3038 3038 3038 3038 3038 3038 3039 3039 3040 3041 3042 3042 3043 3043 3043 3044 3044 3044 3044 3044 3045 3045 3045 3045 3045 3045 3044 3044 3044 3044 3045 3045 3045 3046 3047 3048 3049 3051 3052 3054 3056 3058 3059 3060 3061 3062 3062 3062 3063 3063 3063 3062 3062 3061 3061 3060 3060 3059 3059 3058 3057 3056 3055 3054 3053 3051 3050 3048 3046 3045 3043 3041 3039 3038 3036
3035 3035 3035 3035 3034 3034 3034 3034 3034 3035 3035 3034 3034 3034 3034 3035 3036 3037 3037 3038 3039 3040 3040 3040 3040 3041 3041 3041 3042 3042 3042 3042 3042 3043 3043 3043 3043 3043 3043 3043 3043 3043 3044 3045 3047 3048 3050 3052 3053 3055 3056 3057 3058 3059 3060 3060 3060 3061 3061 3061 3061 3060 3060 3060 3059 3059 3058 3057 3057 3056 3055 3054 3052 3051 3050 3048 3047 3045 3043 3042 3040 3038 3036 3034 3032
3032 3032 3032 3032 3032 3032 3032 3032 3032 3032 3032 3031 3031 3031 3032 3032 3033 3034 3035 3035 3036 3037 3037 3037 3038 3038 3039 3039 3040 3040 3040 3040 3040 3040 3041 3041 3041 3041 3041 3041 3041 3042 3043 3045 3047 3049 3050 3052 3053 3055 3056 3057 3057 3058 3058 3059 3059 3059 3059 3059 3059 3058 3058 3058 3057 3057 3056 3055 3055 3054 3052 3051 3050 3048 3047 3045 3044 3042 3040 3038 3036 3034 3032 3030 3029
3029 3029 3029 3029 3029 3029 3030 3030 3029 3029 3029 3030 3029 3029 3030 3030 3031 3032 3032 3033 3033 3034 3034 3035 3036 3036 3037 3037 3037 3038 3038 3038 3038 3038 3039 3039 3039 3040 3040 3040 3041 3042 3043 3045 3046 3048 3050 3052 3053 3054 3055 3056 3056 3056 3057 3057 3057 3057 3057 3057 3057 3057 3056 3056 3055 3055 3054 3053 3052 3051 3050 3049 3047 3046 3044 3042 3040 3039 3037 3035 3033 3031 3029 3027 3025
3027 3027 3027 3027 3027 3027 3028 3028 3027 3027 3028 3028 3028 3028 3028 3029 3029 3030 3030 3031 3031 3032 3033 3033 3034 3034 3035 3035 3035 3035 3036 3036 3036 3037 3037 3038 3039 3039 3039 3040 3041 3042 3042 3044 3046 3048 3050 3052 3053 3054 3054 3055 3055 3055 3055 3056 3056 3056 3056 3056 3055 3055 3055 3054 3053 3053 3052 3051 3050 3049 3048 3046 3045 3043 3041 3039 3037 3035 3033 3032 3030 3028 3025 3023 3021
3025 3024 3024 3024 3025 3025 3025 3026 3026 3026 3026 3026 3026 3027 3027 3027 3028 3028 3029 3029 3030 3031 3032 3032 3032 3032 3033 3033 3033 3033 3034 3035 3036 3036 3037 3037 3038 3038 3039 3039 3040 3041 3042 3044 3046 3048 3050 3051 3052 3052 3053 3053 3053 3054 3054 3055 3055 3054 3054 3054 3053 3053 3053 3052 3051 3051 3050 3049 3048 3047 3045 3044 3042 3040 3038 3036 3034 3032 3030 3028 3026 3024 3022 3019 3017
3023 3022 3022 3022 3023 3023 3023 3024 3024 3024 3025 3025 3025 3025 3026 3026 3026 3026 3026 3027 3028 3029 3029 3029 3030 3030 3031 3032 3032 3032 3033 3034 3035 3035 3035 3036 3036 3037 3037 3038 3038 3040 3042 3044 3046 3048 3049 3050 3050 3051 3051 3052 3052 3053 3053 3053 3053 3053 3052 3052 3052 3051 3051 3050 3049 3048 3047 3046 3045 3044 3042 3041 3039 3037 3035 3033 3031 3029 3027 3025 3023 3020 3018 3015 3013
3021 3021 3021 3021 3021 3022 3022 3023 3023 3023 3024 3024 3024 3024 3024 3024 3024 3024 3025 3025 3025 3026 3026 3027 3028 3029 3029 3030 3031 3032 3032 3033 3033 3034 3034 3035 3035 3036 3036 3037 3038 3040 3042 3044 3045 3047 3047 3048 3049 3050 3050 3051 3051 3051 3052 3052 3052 3051 3051 3051 3050 3050 3049 3048 3047 3046 3045 3044 3043 3041 3040 3038 3036 3034 3032 3030 3028 3026 3023 3021 3019 3016 3014 3011 3008
3021 3020 3020 3020 3021 3022 3022 3022 3023 3023 3023 3023 3023 3022 3022 3022 3023 3023 3023 3024 3024 3024 3025 3026 3027 3028 3029 3029 3030 3030 3031 3032 3032 3033 3033 3034 3034 3035 3036 3037 3038 3040 3042 3043 3045 3046 3047 3048 3049 3049 3049 3050 3050 3050 3050 3050 3050 3050 3050 3049 3049 3048 3048 3047 3046 3044 3043 3042 3040 3039 3037 3035 3033 3031 3029 3027 3024 3022 3019 3017 3014 3011 3008 3005 3002
3021 3020 3020 3020 3021 3022 3022 3022 3022 3022 3022 3022 3021 3020 3020 3020 3021 3021 3022 3023 3023 3024 3025 3026 3027 3027 3028 3029 3029 3029 3030 3031 3031 3032 3032 3033 3034 3035 3036 3038 3039 3041 3042 3043 3044 3045 3046 3047 3048 3048 3048 3049 3049 3049 3049 3049 3049 3048 3048 3047 3047 3046 3046 3045 3044 3042 3041 3039 3038 3036 3034 3032 3030 3028 3025 3023 3020 3018 3015 3012 3009 3006 3004 3001 2998
3021 3020 3020 3020 3021 3021 3022 3022 3022 3022 3022 3021 3020 3019 3019 3019 3020 3021 3022 3023 3023 3024 3025 3026 3026 3027 3027 3028 3028 3029 3029 3030 3030 3031 3032 3033 3034 3035 3037 3038 3040 3041 3042 3043 3044 3045 3046 3046 3047 3047 3048 3048 3048 3048 3048 3048 3047 3046 3046 3046 3045 3045 3044 3042 3041 3040 3038 3036 3035 3033 3031 3029 3026 3024 3021 3019 3016 3013 3010 3008 3005 3002 2999 2996 2993
3021 3021 3021 3021 3021 3021 3021 3022 3022 3022 3022 3021 3021 3020 3020 3020 3021 3021 3022 3023 3024 3025 3025 3026 3026 3027 3027 3027 3028 3028 3029 3029 3030 3031 3031 3033 3034 3036 3037 3039 3040 3041 3042 3043 3044 3044 3045 3046 3047 3047 3047 3048 3048 3047 3047 3046 3045 3045 3044 3044 3043 3042 3041 3040 3039 3037 3035 3033 3031 3029 3027 3025 3022 3020 3017 3015 3012 3009 3006 3004 3001 2998 2995 2992 2989
3021 3021 3021 3021 3021 3021 3021 3022 3022 3022 3022 3022 3022 3021 3021 3022 3022 3023 3023 3024 3025 3025 3026 3026 3027 3027 3027 3028 3028 3029 3029 3030 3030 3030 3031 3033 3034 3036 3038 3039 3040 3041 3042 3043 3044 3045 3045 3046 3046 3046 3047 3047 3046 3046 3045 3044 3044 3044 3043 3042 3042 3040 3039 3038 3036 3034 3032 3030 3028 3026 3023 3021 3018 3016 3014 3011 3008 3005 3002 3000 2997 2994 2991 2988 2985
3021 3021 3021 3021 3021 3021 3021 3021 3022 3022 3023 3023 3023 3023 3023 3024 3024 3025 3025 3026 3026 3026 3027 3027 3027 3027 3027 3028 3028 3028 3028 3029 3029 3030 3032 3033 3035 3037 3038 3039 3040 3042 3042 3043 3044 3044 3045 3045 3046 3046 3046 3045 3045 3044 3044 3043 3043 3042 3042 3041 3040 3038 3037 3035 3033 3031 3029 3027 3024 3022 3020 3017 3015 3012 3010 3007 3005 3002 2999 2996 2993 2990 2987 2984 2980